Find Local Weather

World > North America > United States > New York

Hancock, New York Regional Weather

Lat: 41.95N, Lon: 75.28W
Wx Zone: NYZ057
Feedback
Expires:201806240000;;007434
ASUS41 KALY 232310
RWRALY

NEW YORK STATE HOURLY WEATHER ROUNDUP
NATIONAL WEATHER SERVICE ALBANY NY
700 PM EDT SAT JUN 23 2018

NOTE: "FAIR" INDICATES FEW OR NO CLOUDS BELOW 12,000 FEET WITH NO
SIGNIFICANT WEATHER AND/OR NO OBSTRUCTIONS TO VISIBILITY.


NYZ032-033-038>043-046>054-057>066-NYZ062>081-082-084-240000-
EAST

  
CITY           SKY/WX    TMP DP  RH WIND       PRES   REMARKS
ALBANY         CLOUDY    61  55  81 E3        29.83F                  
GLENS FALLS    CLOUDY    58  56  93 E3        29.83S                  
POUGHKEEPSIE   CLOUDY    64  58  80 CALM      29.81S                  
NEWBURGH       CLOUDY    64  61  88 E6        29.83S                  
MONTGOMERY     CLOUDY    65  57  75 NE6       29.82S                  
WHITE PLAINS   CLOUDY    64  61  90 CALM      29.82F                  
ISLIP          CLOUDY    65  63  93 N8        29.81S                  
NEW YORK CITY  CLOUDY    65  60  84 NE7       29.81F                  
CENTRAL PARK   CLOUDY    66  60  81 NE5       29.84F                  
$$


SKY/WX - Weather  TMP - Temperature  DP - Dewpoint  RH - Relative Humidity
WIND - Wind Direction/Speed PRES - Barometric Pressure